URMLURMM

Guest
Details From URML - UYTASH
To URMM - MINERALNYYE VODY
Flight Number -
Tags generated
Created
Modified
Stats Distance 224 nm / 416 km
Max Altitude 34,300 ft / 10,455 m
Waypoints 4
Social Downloads 2
Likes 0
Share VATSIM

Download

Looking for another format? Having issues loading an existing format? Contact us
Advertisement - Login to hide

Notes

Basic altitude profile: - Ascent Rate: 2500ft/min - Ascent Speed: 250kts - Cruise Altitude: 2170000ft - Cruise Speed: 420kts - Descent Rate: 2000ft/min - Descent Speed: 250kts

Route

URML BELNI B494 NASTA URMM

ID Type Via Altitude Latitude Longitude Leg Dist Tot Dist Heading (true) Name
O URML APT - 0 ft / 0 m 42.81658˚ 47.65193˚ - 0 nm - UYTASH
BELNI FIX - 34,300 ft / 10,455 m 43.91972˚ 45.92028˚ 100 nm 100 nm 312° / 311° -
NASTA FIX B494 (AWY-HI) 26,500 ft / 8,077 m 43.99972˚ 45.21528˚ 30 nm 131 nm 279° / 279° -
O URMM APT - 0 ft / 0 m 44.22507˚ 43.08189˚ 92 nm 224 nm 279° / 278° MINERALNYYE VODY

Altitude Profile

Advertisement - Login to hide

Weather


0- 5 10 15 20 25 30 35+ Temperature / ° C

Clouds and Precipitation
Forecast for 2017-12-17 00:00 UTC. Updated 2 hours ago

Ground ~20,000 ft ~40,000 ft Winds

URML

Details ICAO URML (MCX)
Name UYTASH
Region Russia
Timezone Europe/Moscow (UTC+3.0)
Stats Elevation 12 ft / 4 m (AMSL)
Location 42.816582° 47.651930°
Runways 2
Magnetic Variation 7.057° E

METAR

URML 162030Z 15009MPS 8000 OVC006 09/07 Q1024 R14/150065 NOSIG RMK QBB200 MT OBSC QFE768/1024

Decode

TAF

Not found

Departure Runways

ID Width Length Bearing (true) Bearing (mag) Surface Threshold Offset Overrun Length
14 138 ft / 42 m 8,643 ft / 2,634 m 148.10° 141.04° Concrete 0 ft / 0 m 0 ft / 0 m
14R 230 ft / 70 m 8,690 ft / 2,649 m 147.93° 140.87° Grass 0 ft / 0 m 0 ft / 0 m
32 138 ft / 42 m 8,643 ft / 2,634 m 328.11° 321.05° Concrete 0 ft / 0 m 0 ft / 0 m
32L 230 ft / 70 m 8,690 ft / 2,649 m 327.94° 320.88° Grass 0 ft / 0 m 0 ft / 0 m

URMM

Details ICAO URMM (MRV)
Name MINERALNYYE VODY
Region Russia
Timezone Europe/Moscow (UTC+3.0)
Stats Elevation 1,054 ft / 321 m (AMSL)
Location 44.225073° 43.081891°
Runways 1
Magnetic Variation 7.388° E

METAR

URMM 162030Z 12006MPS 4200 BR OVC004 04/03 Q1021 R12/190160 NOSIG RMK MT OBSC QFE738/0984

Decode

TAF

TAF URMM 161958Z 1621/1721 09005G12MPS 3100 BR OVC004 TX06/1711Z TN00/1703Z TEMPO 1621/1708 10003G08MPS 0300 -DZ FG OVC002 BECMG 1708/1710 9999 NSW BKN011 TEMPO 1715/1718 10003G08MPS 3100 BR

Decode

Destination Runways

ID Width Length Bearing (true) Bearing (mag) Surface Threshold Offset Overrun Length
12 197 ft / 60 m 12,766 ft / 3,891 m 122.28° 114.89° Concrete 0 ft / 0 m 240 ft / 73 m
30 197 ft / 60 m 12,766 ft / 3,891 m 302.31° 294.92° Concrete 0 ft / 0 m 250 ft / 76 m

Popular Alternatives